Regional Weather Roundup
Issued by NWS Jackson, KY

Home | Current Version | Previous Version | Graphics & Text | Print | Product List | Glossary On
Versions: 1 2 3 4 5 6 7 8 9 10 11 12 13 14 15 16 17 18 19 20 21 22 23 24 25 26 27 28 29 30 31 32 33 34 35 36 37 38 39 40 41 42 43 44 45 46 47 48 49 50
000
ASUS43 KJKL 031910
RWRJKL

EAST KENTUCKY HOURLY WEATHER ROUNDUP
NATIONAL WEATHER SERVICE JACKSON KY
300 PM EDT FRI JUL 03 2015

NOTE: "FAIR" INDICATES FEW OR NO CLOUDS BELOW 12,000 FEET WITH
NO SIGNIFICANT WEATHER AND/OR OBSTRUCTIONS TO VISIBILITY.

* THESE REPORTS ARE NOT UNDER NWS QUALITY CONTROL AND MAY NOT
  REPORT WEATHER SUCH AS PRECIPITATION AND FOG.

KYZ079-080-083-085-087-088-110-112-115-119-120-032000
...EASTERN KENTUCKY...

CITY           SKY/WX    TMP DP  RH WIND       PRES   REMARKS
JACKSON        CLOUDY    69  66  90 CALM      29.90S
LONDON         CLOUDY    75  69  81 NE5       29.89S
SOMERSET*      PTSUNNY   75  68  78 W8        29.91R
MONTICELLO*    PTSUNNY   79  72  79 SW12      29.92S
MIDDLESBORO*   LGT RAIN  75  71  85 S5        29.92S
HARLAN APT*      N/A     70  63  78 MISG      29.93F
HAZARD APT*    LGT RAIN  70  68  94 CALM      29.90F
BLACK MTN*       N/A     63  63 100 S7          N/A
PIKEVILLE APT* LGT RAIN  70  68  94 CALM      29.90R
BIG SANDY*     CLOUDY    73  69  89 CALM      29.90R
MOREHEAD APT*  CLOUDY    75  70  83 S5        29.89S
$$

KYZ035-036-041-042-044-050-067-078-099-032000
...CENTRAL KENTUCKY...

CITY           SKY/WX    TMP DP  RH WIND       PRES   REMARKS
MT STERLING*   LGT RAIN  72  70  94 SW10      29.88F
FLEMING/MASON* CLOUDY    73  68  83 N5        29.88S
DANVILLE*      CLOUDY    77  70  78 SW9       29.88S
RICHMOND*      CLOUDY    75  70  83 S6        29.87F
LEXINGTON      HVY RAIN  72  68  87 S14       29.86S FOG
FRANKFORT      MOSUNNY   77  68  73 NW7       29.84F
$$

KYZ091>093-OHZ055-061-077-WVZ005-015-034-035-042-032000
...SOUTHERN OHIO/WEST VIRGINIA...

CITY           SKY/WX    TMP DP  RH WIND       PRES   REMARKS
COVINGTON      CLOUDY    76  65  68 N7        29.87F
COLUMBUS       LGT RAIN  73  62  68 E6        29.91F
DAYTON         CLOUDY    77  63  61 E8        29.91F
WILMINGTON     LGT RAIN  69  62  78 NE7       29.89F
HUNTINGTON     CLOUDY    73  70  88 SW5       29.86F
CHARLESTON     TSTM      73  70  90 N3        29.87F
PINEVILLE*     DRIZZLE   73  71  93 MISG      29.98F
BECKLEY        LGT RAIN  70  66  87 S9        29.97F
BLUEFIELD      LGT RAIN  70  64  81 S5        30.01S
$$

VAZ002-007-008-TNZ017-027-036-066-071-032000
...SOUTHWEST VIRGINIA/EAST TENNESSEE...

CITY           SKY/WX    TMP DP  RH WIND       PRES   REMARKS
WISE*          CLOUDY    68  68 100 SW8       29.97F
JONESVILLE*      N/A    N/A N/A N/A MISG        N/A
ABINGDON*      LGT RAIN  70  69  97 CALM      29.98R
BRISTOL        HVY RAIN  71  70  96 W6        29.95S FOG
KNOXVILLE      CLOUDY    76  68  76 SW17      29.93R
OAK RIDGE      CLOUDY    79  69  71 VRB7      29.93S
CROSSVILLE     CLOUDY    74  67  78 W10G20    29.98S
NASHVILLE      PTSUNNY   83  73  72 VRB7      29.91F
$$

...KEY TO REMARKS...
VSB - VISIBILITY IN MILES
WCI - WIND CHILL INDEX
HX  - HEAT INDEX

$$


USA.gov is the U.S. government's official web portal to all federal, state and local government web resources and services.